This demonstration page uses our WeatherBlox Daily Observations layout. Learn more.

Left ArrowRight Arrow

39.51506, -84.39828

Hourly Observations for March 28, 2021

Temp ( °F °C ) Dew Point ( °F °C ) Humidity (%) Winds ( mph kmh ) Pressure ( in mb ) Visibility ( mi km ) Precip ( " mm )
12:15 am 00:15 Cloudy 64 17.5 58 14.7 84 84 SSW 10 17 29.79 1009 10 16 N/A
12:35 am 00:35 Partly Cloudy with Nearby Thunderstorms 63 17.1 58 14.7 86 86 S 9 15 29.77 1008 10 16 N/A
12:55 am 00:55 Cloudy 63 17.1 58 14.6 85 85 SSW 8 13 29.76 1008 10 16 N/A
1:15 am 01:15 Mostly Cloudy 62 16.6 59 14.8 89 89 N N/A 29.75 1008 10 16 N/A
1:35 am 01:35 Cloudy with Strong Thunderstorms 60 15.5 59 15.2 98 98 N N/A 29.73 1007 3 4 0.07 1.78
1:55 am 01:55 Cloudy with Strong Thunderstorms 59 15 59 15 100 100 S 10 17 29.75 1007 3 5 0.31 7.87
2:15 am 02:15 Cloudy with Thunderstorms 59 15 N/A N/A W 5 7 29.73 1007 4 6 0.09 2.29
2:35 am 02:35 Cloudy with Nearby Thunderstorms 59 15 N/A N/A SW 6 9 29.73 1007 4 6 0.18 4.57
2:55 am 02:55 Cloudy with Nearby Thunderstorms 59 15 N/A N/A SSW 7 11 29.72 1006 4 6 0.24 6.10
3:15 am 03:15 Cloudy with Light Rain 59 15 N/A N/A S 8 13 29.70 1006 5 8 0.05 1.27
3:35 am 03:35 Cloudy with Nearby Thunderstorms 59 15 N/A N/A S 10 17 29.67 1005 10 16 0.05 1.27
3:55 am 03:55 Cloudy with Light Rain 59 15 N/A N/A SSW 5 7 29.67 1005 10 16 0.05 1.27
4:15 am 04:15 Mostly Cloudy with Light Rain 59 15 N/A N/A W 3 6 29.66 1004 5 8 0.01 0.25
4:35 am 04:35 Cloudy with Haze 59 15 N/A N/A WNW 3 6 29.66 1004 5 8 0.01 0.25
4:55 am 04:55 Cloudy with Haze 59 15 N/A N/A NNW 10 17 29.66 1004 7 11 0.01 0.25
5:15 am 05:15 Cloudy 55 12.5 54 12.4 99 99 NNW 17 28 29.67 1005 10 16 N/A
5:35 am 05:35 Cloudy with Light Rain 54 12.1 53 11.7 97 97 N 16 26 29.68 1005 4 6 0.01 0.25
5:55 am 05:55 Cloudy with Light Rain 54 12 53 11.8 99 99 N 10 17 29.68 1005 10 16 0.02 0.51
6:15 am 06:15 Cloudy 53 11.9 53 11.7 99 99 NNE 6 9 29.68 1005 10 16 N/A
6:35 am 06:35 Cloudy with Light Rain 53 11.9 53 11.6 98 98 NNW 3 6 29.70 1006 10 16 N/A
6:55 am 06:55 Cloudy 53 11.8 53 11.5 98 98 WNW 3 6 29.70 1006 10 16 N/A
7:15 am 07:15 Cloudy with Light Rain 53 11.7 53 11.6 99 99 WSW 5 7 29.71 1006 10 16 N/A
7:35 am 07:35 Cloudy with Light Rain 54 12 N/A N/A WSW 5 7 29.71 1006 10 16 N/A
7:55 am 07:55 Cloudy with Light Rain 54 12 N/A N/A SW 6 9 29.72 1007 10 16 0.01 0.25
8:15 am 08:15 Cloudy with Light Rain 53 11.4 52 11.3 99 99 WNW 13 20 29.73 1007 7 11 0.01 0.25
8:35 am 08:35 Cloudy with Light Rain 52 11.1 50 10.1 94 94 WNW 14 22 29.73 1007 10 16 0.02 0.51
8:55 am 08:55 Cloudy 52 10.9 50 10.1 95 95 W 12 19 29.74 1007 10 16 0.02 0.51
9:15 am 09:15 Cloudy with Light Rain 51 10.7 49 9.7 94 94 WNW 18 30 29.75 1007 10 16 N/A
9:35 am 09:35 Cloudy 51 10.5 48 9 91 91 W 20 31 29.76 1008 10 16 N/A
9:55 am 09:55 Cloudy 50 9.8 45 7 83 83 NW 21 33 29.77 1008 10 16 N/A
10:15 am 10:15 Mostly Cloudy 49 9.5 42 5.6 77 77 WNW 18 30 29.79 1009 10 16 N/A
10:35 am 10:35 Cloudy 48 8.9 41 4.8 76 76 W 21 33 29.80 1009 10 16 N/A
10:55 am 10:55 Mostly Cloudy 48 9.1 40 4.3 72 72 WNW 22 35 29.82 1010 10 16 N/A
11:15 am 11:15 Mostly Cloudy 49 9.6 39 3.9 68 68 WNW 22 35 29.84 1010 10 16 N/A
11:35 am 11:35 Mostly Cloudy 48 8.8 37 2.8 66 66 WNW 17 28 29.85 1011 10 16 N/A
11:55 am 11:55 Mostly Cloudy 48 8.7 36 2.4 65 65 NW 22 35 29.86 1011 10 16 N/A
12:15 pm 12:15 Cloudy 49 9.2 37 3 65 65 WNW 22 35 29.87 1012 10 16 N/A
12:35 pm 12:35 Cloudy 47 8.4 37 2.6 67 67 WNW 22 35 29.90 1013 10 16 N/A
12:55 pm 12:55 Cloudy 46 7.9 36 2 67 67 WNW 25 41 29.91 1013 10 16 N/A
1:15 pm 13:15 Cloudy 45 7.1 34 1.3 67 67 WNW 17 28 29.93 1013 10 16 N/A
1:35 pm 13:35 Cloudy 45 7 35 1.6 69 69 WNW 23 37 29.94 1014 10 16 N/A
1:55 pm 13:55 Cloudy 45 7.4 34 1.1 65 65 WNW 20 31 29.95 1014 10 16 N/A
2:15 pm 14:15 Cloudy 45 7.1 34 1.3 67 67 WNW 13 20 29.96 1014 10 16 N/A
2:35 pm 14:35 Cloudy 45 7 35 1.4 68 68 WNW 20 31 29.97 1015 10 16 N/A
2:55 pm 14:55 Cloudy 44 6.9 34 0.9 66 66 W 25 41 29.98 1015 10 16 N/A
3:15 pm 15:15 Cloudy 44 6.5 34 1.2 69 69 W 22 35 29.99 1016 10 16 N/A
3:35 pm 15:35 Cloudy 44 6.4 33 0.7 67 67 WNW 22 35 30.00 1016 10 16 N/A
3:55 pm 15:55 Cloudy 44 6.4 33 0.8 68 68 WNW 21 33 30.00 1016 10 16 N/A
4:15 pm 16:15 Cloudy 44 6.6 33 0.6 66 66 WNW 18 30 30.01 1016 10 16 N/A
4:35 pm 16:35 Cloudy 43 6.3 34 0.9 69 69 W 20 31 30.02 1017 10 16 N/A
4:55 pm 16:55 Cloudy 44 6.5 33 0.4 65 65 WNW 16 26 30.03 1017 10 16 N/A
5:15 pm 17:15 Cloudy 43 6.3 32 0.2 65 65 WNW 18 30 30.05 1018 10 16 N/A
5:35 pm 17:35 Cloudy 43 6.3 32 undefined 64 64 WNW 16 26 30.06 1018 10 16 N/A
5:55 pm 17:55 Cloudy 44 6.7 33 0.3 64 64 WNW 17 28 30.07 1018 10 16 N/A
6:15 pm 18:15 Cloudy 45 7 33 0.3 63 63 WNW 15 24 30.08 1019 10 16 N/A
6:35 pm 18:35 Cloudy 45 7.1 32 -0.2 60 60 WNW 14 22 30.08 1019 10 16 N/A
6:55 pm 18:55 Cloudy 45 7 31 -0.5 59 59 WNW 15 24 30.10 1019 10 16 N/A
7:15 pm 19:15 Cloudy 45 7.1 31 -0.8 58 58 WNW 14 22 30.10 1019 10 16 N/A
7:35 pm 19:35 Cloudy 45 7.1 30 -1.2 56 56 WNW 13 20 30.11 1020 10 16 N/A
7:55 pm 19:55 Cloudy 45 7 27 -2.9 50 50 WNW 18 30 30.13 1020 10 16 N/A
8:15 pm 20:15 Mostly Cloudy 44 6.6 23 -5 44 44 WNW 16 26 30.14 1021 10 16 N/A
8:35 pm 20:35 Cloudy 44 6.5 25 -3.8 48 48 WNW 12 19 30.15 1021 10 16 N/A
8:55 pm 20:55 Cloudy 44 6.5 27 -2.9 51 51 WNW 13 20 30.16 1021 10 16 N/A
9:15 pm 21:15 Mostly Cloudy 43 6.1 27 -3 52 52 WNW 16 26 30.17 1022 10 16 N/A
9:35 pm 21:35 Partly Cloudy 42 5.5 27 -2.9 55 55 WNW 10 17 30.18 1022 10 16 N/A
9:55 pm 21:55 Partly Cloudy 41 5 27 -2.7 58 58 WNW 8 13 30.18 1022 10 16 N/A
10:15 pm 22:15 Clear 40 4.2 27 -2.6 62 62 W 6 9 30.19 1022 10 16 N/A
10:35 pm 22:35 Clear 39 4.1 27 -2.8 61 61 NW 8 13 30.19 1022 10 16 N/A
10:55 pm 22:55 Clear 39 4 26 -3.5 58 58 WNW 8 13 30.19 1023 10 16 N/A
11:15 pm 23:15 Clear 39 3.7 25 -3.9 58 58 WNW 7 11 30.21 1023 10 16 N/A
11:35 pm 23:35 Clear 38 3.2 25 -4 60 60 W 8 13 30.21 1023 10 16 N/A
11:55 pm 23:55 Clear 36 2.1 25 -3.9 65 65 WSW 7 11 30.21 1023 10 16 N/A

Powered by AerisWeather